Tracking 30970 objects as of 3-Jul-2025
HD Live streaming from Space Station
objects crossing your sky now

COSMOS 2292

Track COSMOS 2292 now!
10-day predictions
COSMOS 2292 is classified as:


NORAD ID: 23278
Int'l Code: 1994-061A
Perigee: 399.1 km
Apogee: 1,626.0 km
Inclination: 83.0 °
Period: 105.2 minutes
Semi major axis: 7383 km
RCS: 2.958 m2 (large)
Launch date: September 27, 1994
Source: Commonwealth of Independent States (former USSR) (CIS)
Launch site: PLESETSK MISSILE AND SPACE COMPLEX (PKMTR)
Your satellite tracking list
DELTA 1 DEB
Track 1 satellite(s)




NASA's NSSDC Master Catalog

Two Line Element Set (TLE):
1 23278U 94061A   25183.94663918  .00004044  00000-0  33060-3 0  9994
2 23278  82.9725 171.4729 0830843  53.6700 313.8275 13.68367481510197
Source of the keplerian elements: AFSPC